OEDF

Dammam/King Fahd International Airport

Airport
ICAO code
OEDF
Summary
ICAO Region
MID
ICAO Territory
Location

Dammam,

Coordinates
26° 28' 6" N , 49° 47' 17" E
KCC
Airport WX
Sand Storm
Metar
OEDF 240500Z 35004KT 8000 NSC 18/14 Q1017 NOSIG

Description

Dammam King Fahd International Airport is located 15 km northwest of Dammam, Saudi Arabia.

Climatology

Hot Desert Climate (Köppen climate classification BWh) - Hot desert climates are typically found in the subtropics where there is unbroken sunshine for the whole year due to the stable descending air and high pressure, little or no precipitation. Maximum temperatures of 40°C to 45°C are not uncommon, particularly during the warmer months of the year. During colder periods of the year, night-time temperatures can drop to freezing or below due to the exceptional radiation loss under the clear skies. However, very rarely do temperatures drop far below freezing.

Runways

Designator Length Width Surface Rops
16L/34R 4000 60 ASP Yes/Yes
16R/34L 4000 60 ASP Yes/Yes

Airport map

Aerial View

SKYbrary Partners:

Safety knowledge contributed by: